This is the latest recevied weather packets stored in our database for station/object N1YZ. If no packets are shown the sender has not sent any weather packets the latest 10 day(s).
| Time | Temp. | Humidity | Pressure | Rain* | Wind** | Luminosity | Snow |
|---|---|---|---|---|---|---|---|
| 1777550822 | 15° C | 99% | 1032.3 hPa | 0 mm | - | 9 W/m² | - |
| 1777550518 | 15° C | 99% | 1032.2 hPa | 0 mm | - | 7 W/m² | - |
| 1777550213 | 15° C | 99% | 1032.3 hPa | 0 mm | - | 3 W/m² | - |
| 1777549910 | 14.44° C | 99% | 1032.1 hPa | 0 mm | - | 6 W/m² | - |
| 1777549606 | 14.44° C | 99% | 1031.8 hPa | 0 mm | - | 5 W/m² | - |
| 1777549302 | 15° C | 99% | 1031.9 hPa | 0 mm | - | 5 W/m² | - |
| 1777549000 | 14.44° C | 99% | 1031.5 hPa | 0 mm | - | 10 W/m² | - |
| 1777548696 | 14.44° C | 99% | 1031.4 hPa | 0 mm | - | 10 W/m² | - |
| 1777548393 | 14.44° C | 99% | 1031.5 hPa | 0 mm | - | 5 W/m² | - |
| 1777548090 | 14.44° C | 99% | 1032.1 hPa | 0 mm | - | 2 W/m² | - |
| 1777547785 | 14.44° C | 99% | 1031.8 hPa | 0 mm | - | 1 W/m² | - |
| 1777547482 | 15° C | 99% | 1031.8 hPa | 0 mm | - | 1 W/m² | - |
| 1777547180 | 14.44° C | 99% | 1032.2 hPa | 0 mm | - | 0 W/m² | - |
| 1777546877 | 14.44° C | 99% | 1031.3 hPa | 0 mm | - | 1 W/m² | - |
| 1777546574 | 14.44° C | 99% | 1031.4 hPa | 0 mm | - | 0 W/m² | - |
| 1777546270 | 14.44° C | 99% | 1031.4 hPa | 0 mm | - | 0 W/m² | - |
| 1777545967 | 14.44° C | 99% | 1031.2 hPa | 0 mm | - | 0 W/m² | - |
| 1777545663 | 15° C | 99% | 1031.3 hPa | 0 mm | - | 0 W/m² | - |
| 1777545361 | 15° C | 99% | 1031.4 hPa | 0 mm | - | 0 W/m² | - |
| 1777545058 | 15° C | 99% | 1031.9 hPa | 0 mm | - | 0 W/m² | - |
| 1777544755 | 15° C | 99% | 1031.6 hPa | 0 mm | - | 0 W/m² | - |
| 1777544450 | 15° C | 99% | 1031.6 hPa | 0 mm | - | 0 W/m² | - |
| 1777544146 | 15° C | 99% | 1031.2 hPa | 0 mm | - | 0 W/m² | - |
| 1777543844 | 15° C | 99% | 1031.4 hPa | 0 mm | - | 0 W/m² | - |
| 1777543540 | 15° C | 99% | 1031.3 hPa | 0 mm | - | 0 W/m² | - |
* Rain latest hour (hover to see other rain measurements)
** Current wind speed in m/s (hover to see current wind gust speed)